User: anonymous   Login
Location: Hilton Head Island
(32.2163°N, 80.7526°W)
Time: 05:35:49
(UTC-05:00)
Language:

Tiros 1 - Orbit

View from above orbital plane
View from above orbital plane
View from above satellite
View from above satellite

Ground track
Ground track

The orbit is defined by the following mean orbital elements,

1 00029U          26045.55606580 +.00000000 +00000-0 +13331-3 0 00000
2 00029  48.3769 247.3697 0021888 100.9660 259.3717 14.78578432    00
Epoch (UTC): 14 February 2026 13:20:44
Eccentricity: 0.0021888
inclination: 48.3769°
perigee height: 618 km
apogee height: 649 km
right ascension of ascending node: 247.3697°
argument of perigee: 100.9660°
revolutions per day: 14.78578432
mean anomaly at epoch: 259.3717°

The dashed part of the orbit path shows where the satellite is in the earth's shadow,  

DLR